KI1U Weather Reports


time (UTC)temp
C
wind
direction
speed
KPH
gust
KPH
rain 1hr
cm
rain 24hr
cm
rain mn
cm
humidity
%
barometer
mb
20260507000029 12 131 3.2 14.5 0.00 0.15 0.15 92 1007.7
20260506234543 12 193 4.8 14.5 0.00 0.15 0.15 92 1007.7
20260506233022 12 117 3.2 9.7 0.03 0.15 0.15 92 1007.6
20260506231525 12 112 3.2 11.3 0.03 0.15 0.15 91 1007.6
20260506230027 12 215 3.2 17.7 0.03 0.15 0.15 91 1007.8
20260506224530 13 140 3.2 9.7 0.05 0.15 0.15 91 1007.7
20260506223031 13 157 3.2 9.7 0.03 0.13 0.13 91 1007.7
20260506221520 13 199 1.6 11.3 0.05 0.13 0.13 90 1007.7
20260506220034 13 238 1.6 8.0 0.05 0.13 0.13 90 1007.6
20260506214528 13 112 1.6 9.7 0.03 0.10 0.10 90 1008.0
20260506213026 13 196 3.2 12.9 0.05 0.10 0.10 89 1008.1
20260506211527 13 130 4.8 16.1 0.03 0.08 0.08 88 1008.2
20260506210022 14 165 1.6 11.3 0.03 0.08 0.08 88 1008.3
20260506204526 14 91 4.8 16.1 0.03 0.08 0.08 87 1008.4
20260506203028 14 143 4.8 14.5 0.00 0.05 0.05 87 1008.5
20260506201526 14 347 3.2 12.9 0.05 0.05 0.05 87 1008.6
20260506200022 15 197 4.8 20.9 0.05 0.05 0.05 86 1008.8
20260506194531 15 109 4.8 16.1 0.05 0.05 0.05 86 1008.9
20260506193009 14 93 4.8 12.9 0.05 0.05 0.05 85 1009.0
20260506191512 15 96 1.6 11.3 0.00 0.00 0.00 82 1009.1
20260506190020 15 109 3.2 17.7 0.00 0.00 0.00 78 1009.3
20260506184526 16 96 4.8 16.1 0.00 0.00 0.00 75 1009.4
20260506183023 16 271 4.8 16.1 0.00 0.00 0.00 73 1009.7
20260506181510 16 203 3.2 25.7 0.00 0.00 0.00 72 1009.6
20260506180014 17 240 6.4 24.1 0.00 0.00 0.00 71 1009.8
20260506174518 17 131 4.8 24.1 0.00 0.00 0.00 69 1010.1
20260506173026 18 245 9.7 27.4 0.00 0.00 0.00 67 1010.2
20260506171525 18 108 6.4 20.9 0.00 0.00 0.00 66 1010.6
20260506170016 19 36 8.0 24.1 0.00 0.00 0.00 65 1010.3
20260506164518 19 106 8.0 25.7 0.00 0.00 0.00 64 1010.4
20260506163019 18 44 3.2 20.9 0.00 0.00 0.00 67 1010.7
20260506161524 18 141 9.7 24.1 0.00 0.00 0.00 66 1010.9
20260506160035 18 234 6.4 22.5 0.00 0.00 0.00 65 1010.9
20260506154517 20 148 4.8 24.1 0.00 0.00 0.00 63 1011.0
20260506153019 20 115 4.8 16.1 0.00 0.00 0.00 64 1011.1
20260506151522 19 108 6.4 14.5 0.00 0.00 0.00 65 1011.2
20260506150025 19 82 4.8 17.7 0.00 0.00 0.00 65 1011.2
20260506144526 18 127 4.8 19.3 0.00 0.00 0.00 67 1011.4
20260506143016 18 198 3.2 12.9 0.00 0.00 0.00 67 1011.1
20260506141520 18 123 4.8 14.5 0.00 0.00 0.00 68 1011.5
20260506140024 18 145 3.2 9.7 0.00 0.00 0.00 69 1011.2
20260506134526 17 212 1.6 14.5 0.00 0.00 0.00 71 1011.2
20260506133026 17 123 3.2 14.5 0.00 0.00 0.00 72 1011.6
20260506131537 16 132 3.2 16.1 0.00 0.00 0.00 73 1011.9
20260506130034 16 150 6.4 12.9 0.00 0.00 0.00 75 1011.8
20260506124524 16 248 4.8 14.5 0.00 0.00 0.00 77 1011.7
20260506123026 15 61 4.8 11.3 0.00 0.00 0.00 79 1011.7
20260506121526 15 154 1.6 9.7 0.00 0.00 0.00 81 1011.7
20260506120021 14 179 4.8 9.7 0.00 0.00 0.00 82 1011.9
20260506114523 13 189 1.6 12.9 0.00 0.00 0.00 83 1012.3
20260506113026 13 113 1.6 14.5 0.00 0.00 0.00 84 1012.3
20260506111525 13 126 1.6 8.0 0.00 0.00 0.00 86 1012.2
20260506110015 13 136 0.0 8.0 0.00 0.00 0.00 86 1012.2
20260506104519 13 240 0.0 9.7 0.00 0.00 0.00 86 1012.3
20260506103003 13 294 3.2 9.7 0.00 0.00 0.00 86 1012.1
20260506101509 13 114 0.0 11.3 0.00 0.00 0.00 86 1012.0
20260506100016 13 80 0.0 14.5 0.00 0.00 0.00 86 1011.8
20260506094526 13 136 3.2 11.3 0.00 0.00 0.00 86 1011.7
20260506093030 13 224 1.6 11.3 0.00 0.00 0.00 85 1011.7
20260506091510 13 24 0.0 9.7 0.00 0.00 0.00 84 1011.9
20260506090010 13 229 0.0 9.7 0.00 0.00 0.00 84 1012.0
20260506084518 13 107 1.6 12.9 0.00 0.00 0.00 83 1012.1
20260506083022 13 202 1.6 16.1 0.00 0.00 0.00 83 1012.2
20260506081530 13 148 1.6 8.0 0.00 0.00 0.00 82 1012.2
20260506073020 14 129 6.4 14.5 0.00 0.00 0.00 81 1012.3
20260506071524 14 161 1.6 14.5 0.00 0.00 0.00 80 1012.2
20260506061520 13 86 3.2 11.3 0.00 0.00 0.00 80 1012.1
20260506044526 14 309 3.2 12.9 0.00 0.00 0.00 74 1012.7
20260506043028 15 112 4.8 14.5 0.00 0.00 0.00 72 1012.7
20260506041527 15 86 1.6 11.3 0.00 0.00 0.00 71 1012.6
20260506040019 15 239 3.2 14.5 0.00 0.00 0.00 71 1012.5
20260506034522 15 72 3.2 14.5 0.00 0.00 0.00 71 1012.5
20260506033026 15 210 3.2 17.7 0.00 0.00 0.00 70 1012.4
20260506031511 15 226 4.8 17.7 0.00 0.00 0.00 69 1012.3
20260506030027 15 176 4.8 19.3 0.00 0.00 0.00 68 1012.3
20260506024536 15 157 4.8 25.7 0.00 0.00 0.00 68 1012.2
20260506023027 15 193 4.8 16.1 0.00 0.00 0.00 68 1012.2
20260506021528 15 206 3.2 14.5 0.00 0.00 0.00 67 1012.4
20260506020013 15 100 3.2 12.9 0.00 0.00 0.00 67 1012.3
20260506014519 15 85 3.2 14.5 0.00 0.00 0.00 67 1012.3
20260506013022 15 139 3.2 17.7 0.00 0.00 0.00 67 1012.2
20260506011525 15 130 3.2 11.3 0.00 0.00 0.00 70 1012.2
20260506010033 14 115 3.2 11.3 0.00 0.00 0.00 71 1012.0
20260506004514 14 209 3.2 12.9 0.00 0.00 0.00 71 1011.8
20260506003019 14 226 3.2 9.7 0.00 0.00 0.00 71 1011.5
20260506001532 14 97 1.6 12.9 0.00 0.00 0.00 70 1011.3